This is the latest recevied weather packets stored in our database for station/object KF7U. If no packets are shown the sender has not sent any weather packets the latest 10 day(s).
| Time | Temp. | Humidity | Pressure | Rain* | Wind** | Luminosity | Snow |
|---|---|---|---|---|---|---|---|
| 1777916855 | 26.11° C | 30% | 1011.2 hPa | 0 mm | - | 502 W/m² | - |
| 1777916555 | 26.11° C | 30% | 1011.2 hPa | 0 mm | - | 599 W/m² | - |
| 1777916255 | 26.11° C | 32% | 1011.2 hPa | 0 mm | - | 504 W/m² | - |
| 1777915954 | 26.67° C | 30% | 1011.5 hPa | 0 mm | - | 446 W/m² | - |
| 1777915655 | 26.67° C | 31% | 1011.5 hPa | 0 mm | - | 604 W/m² | - |
| 1777915355 | 26.67° C | 28% | 1011.5 hPa | 0 mm | - | 662 W/m² | - |
| 1777915055 | 26.11° C | 30% | 1011.9 hPa | 0 mm | - | 557 W/m² | - |
| 1777914454 | 26.11° C | 32% | 1011.5 hPa | 0 mm | - | 559 W/m² | - |
| 1777914157 | 26.11° C | 31% | 1011.5 hPa | 0 mm | - | 568 W/m² | - |
| 1777913855 | 26.11° C | 32% | 1011.2 hPa | 0 mm | - | 574 W/m² | - |
| 1777913555 | 26.11° C | 31% | 1011.5 hPa | 0 mm | - | 583 W/m² | - |
| 1777913254 | 26.11° C | 33% | 1011.5 hPa | 0 mm | - | 754 W/m² | - |
| 1777912955 | 25.56° C | 34% | 1011.5 hPa | 0 mm | - | 725 W/m² | - |
| 1777912655 | 25.56° C | 36% | 1011.5 hPa | 0 mm | - | 722 W/m² | - |
| 1777912355 | 25.56° C | 36% | 1011.5 hPa | 0 mm | - | 554 W/m² | - |
| 1777912055 | 25.56° C | 35% | 1011.5 hPa | 0 mm | - | 588 W/m² | - |
| 1777911756 | 25.56° C | 34% | 1011.5 hPa | 0 mm | - | 506 W/m² | - |
| 1777911454 | 25° C | 36% | 1011.5 hPa | 0 mm | - | 533 W/m² | - |
| 1777911155 | 25° C | 37% | 1011.5 hPa | 0 mm | - | 571 W/m² | - |
| 1777910855 | 25° C | 37% | 1011.5 hPa | 0 mm | - | 468 W/m² | - |
| 1777910555 | 25° C | 38% | 1011.5 hPa | 0 mm | - | 468 W/m² | - |
| 1777910254 | 25° C | 37% | 1011.5 hPa | 0 mm | - | 518 W/m² | - |
| 1777909955 | 25° C | 38% | 1011.5 hPa | 0 mm | - | 435 W/m² | - |
| 1777909655 | 24.44° C | 39% | 1011.5 hPa | 0 mm | - | 429 W/m² | - |
| 1777909354 | 24.44° C | 40% | 1011.2 hPa | 0 mm | - | 466 W/m² | - |
* Rain latest hour (hover to see other rain measurements)
** Current wind speed in m/s (hover to see current wind gust speed)